SB KEPS @ AMSAT $ORB09183.O Orbital Elements 09183.OSCAR HR AMSAT ORBITAL ELEMENTS FOR OSCAR SATELLITES FROM WA5QGD FORT WORTH,TX July 2, 2009 Send Subscribe/unsubscribe to KEPS at http://www.amsat.org/mailman/listinfo/keps BID: ORB09183.O TO ALL RADIO AMATEURS BT Satellite: AO-07 Catalog number: 07530 Epoch time: 09182.77311510 Element set: 190 Inclination: 101.4266 deg RA of node: 206.9140 deg Eccentricity: 0.0011643 Arg of perigee: 238.7757 deg Mean anomaly: 121.2173 deg Mean motion: 12.53575826 rev/day Decay rate: -2.7e-07 rev/day^2 Epoch rev: 58454 Checksum: 281 Satellite: FO-29 Catalog number: 24278 Epoch time: 09182.71877846 Element set: 0769 Inclination: 098.5528 deg RA of node: 054.8007 deg Eccentricity: 0.0350211 Arg of perigee: 312.8781 deg Mean anomaly: 044.3432 deg Mean motion: 13.52943547 rev/day Decay rate: -1.24e-06 rev/day^2 Epoch rev: 63571 Checksum: 330 Satellite: SO-33 Catalog number: 25509 Epoch time: 09182.73474374 Element set: 487 Inclination: 031.4321 deg RA of node: 330.2298 deg Eccentricity: 0.0354090 Arg of perigee: 105.7355 deg Mean anomaly: 258.2598 deg Mean motion: 14.28253975 rev/day Decay rate: -1.8e-07 rev/day^2 Epoch rev: 55791 Checksum: 326 Satellite: RS-22 Catalog number: 27939 Epoch time: 09182.83157652 Element set: 04 Inclination: 097.9433 deg RA of node: 057.1670 deg Eccentricity: 0.0014797 Arg of perigee: 086.9437 deg Mean anomaly: 273.3479 deg Mean motion: 14.63326015 rev/day Decay rate: .4.0 e-06 rev/day^2 Epoch rev: 30771 Checksum: 319 Satellite: VO-52 Catalog number: 28650 Epoch time: 09182.83982243 Element set: 2636 Inclination: 097.7416 deg RA of node: 243.9371 deg Eccentricity: 0.0026618 Arg of perigee: 344.2726 deg Mean anomaly: 015.7618 deg Mean motion: 14.81596860 rev/day Decay rate: -1.58e-06 rev/day^2 Epoch rev: 22481 Checksum: 336 /EX SB KEPS @ AMSAT $ORB09183.D Orbital Elements 09183.MICROS HR AMSAT ORBITAL ELEMENTS FOR THE MICROSATS FROM WA5QGD FORT WORTH,TX July 2, 2009 Send Subscribe/unsubscribe to KEPS at http://www.amsat.org/mailman/listinfo/keps BID: ORB09183.D TO ALL RADIO AMATEURS BT Satellite: AO-16 Catalog number: 20439 Epoch time: 09183.50802374 Element set: 641 Inclination: 098.2792 deg RA of node: 151.2130 deg Eccentricity: 0.0011729 Arg of perigee: 122.6313 deg Mean anomaly: 237.6008 deg Mean motion: 14.31827582 rev/day Decay rate: 1.7e-07 rev/day^2 Epoch rev: 1534 Checksum: 273 Satellite: LO-19 Catalog number: 20442 Epoch time: 09182.65418699 Element set: 5590 Inclination: 098.2419 deg RA of node: 157.6050 deg Eccentricity: 0.0012920 Arg of perigee: 122.3976 deg Mean anomaly: 237.8469 deg Mean motion: 14.32062403 rev/day Decay rate: -7.8e-07 rev/day^2 Epoch rev: 01538 Checksum: 318 Satellite: AO-27 Catalog number: 22825 Epoch time: 09182.84687692 Element set: 2814 Inclination: 098.4362 deg RA of node: 135.8087 deg Eccentricity: 0.0007896 Arg of perigee: 215.8340 deg Mean anomaly: 144.2308 deg Mean motion: 14.29268103 rev/day Decay rate: -6.3e-07 rev/day^2 Epoch rev: 82200 Checksum: 321 Satellite: IO-26 Catalog number: 22826 Epoch time: 09182.76450543 Element set: 7 Inclination: 098.4305 deg RA of node: 136.4719 deg Eccentricity: 0.0008295 Arg of perigee: 212.8419 deg Mean anomaly: 147.2254 deg Mean motion: 14.29520626 rev/day Decay rate: 9.0e-08 rev/day^2 Epoch rev: 82209 Checksum: 304 Satellite: GO-32 Catalog number: 25397 Epoch time: 09182.76663270 Element set: 9333 Inclination: 098.3255 deg RA of node: 204.3258 deg Eccentricity: 0.0001164 Arg of perigee: 160.3494 deg Mean anomaly: 199.7748 deg Mean motion: 14.23159621 rev/day Decay rate: -1.62e-06 rev/day^2 Epoch rev: 57020 Checksum: 314 Satellite: NO-44 Catalog number: 26931 Epoch time: 09182.83659350 Element set: 061 Inclination: 067.0534 deg RA of node: 026.6032 deg Eccentricity: 0.0005709 Arg of perigee: 274.2632 deg Mean anomaly: 085.7782 deg Mean motion: 14.29560473 rev/day Decay rate: -5.7e-07 rev/day^2 Epoch rev: 40467 Checksum: 309 Satellite: SO-50 Catalog number: 27607 Epoch time: 09182.80025571 Element set: 250 Inclination: 064.5601 deg RA of node: 340.7069 deg Eccentricity: 0.0065384 Arg of perigee: 202.2847 deg Mean anomaly: 157.5396 deg Mean motion: 14.71444207 rev/day Decay rate: -8.9e-07 rev/day^2 Epoch rev: 35082 Checksum: 301 Satellite: CO-55 Catalog number: 27844 Epoch time: 09183.55729194 Element set: 613 Inclination: 098.7129 deg RA of node: 192.5045 deg Eccentricity: 0.0011062 Arg of perigee: 097.9347 deg Mean anomaly: 262.3085 deg Mean motion: 14.20644658 rev/day Decay rate: 3.3e-07 rev/day^2 Epoch rev: 31144 Checksum: 315 Satellite: CO-57 Catalog number: 27848 Epoch time: 09182.55080899 Element set: 11 Inclination: 098.7150 deg RA of node: 190.5733 deg Eccentricity: 0.0010606 Arg of perigee: 103.6760 deg Mean anomaly: 256.5614 deg Mean motion: 14.20445968 rev/day Decay rate: .3.3 e-06 rev/day^2 Epoch rev: 31126 Checksum: 302 Satellite: AO-51 Catalog number: 28375 Epoch time: 09182.75830528 Element set: 289 Inclination: 098.0513 deg RA of node: 191.5111 deg Eccentricity: 0.0085053 Arg of perigee: 080.5398 deg Mean anomaly: 280.5385 deg Mean motion: 14.40645921 rev/day Decay rate: -2.0e-08 rev/day^2 Epoch rev: 26305 Checksum: 305 Satellite: CO-56 Catalog number: 28941 Epoch time: 09182.79933625 Element set: 62 Inclination: 098.1401 deg RA of node: 359.9973 deg Eccentricity: 0.0080115 Arg of perigee: 077.5962 deg Mean anomaly: 283.4235 deg Mean motion: 15.86619436 rev/day Decay rate: .7.2481 e-03 rev/day^2 Epoch rev: 18956 Checksum: 360 Satellite: GENESAT1 Catalog number: 29655 Epoch time: 09182.91585910 Element set: 92 Inclination: 040.0213 deg RA of node: 091.0058 deg Eccentricity: 0.0003258 Arg of perigee: 270.9258 deg Mean anomaly: 089.1194 deg Mean motion: 15.65884563 rev/day Decay rate: .1.0878 e-03 rev/day^2 Epoch rev: 14478 Checksum: 318 Satellite: CP3 Catalog number: 31129 Epoch time: 09182.77987531 Element set: 55 Inclination: 097.9890 deg RA of node: 235.1593 deg Eccentricity: 0.0101238 Arg of perigee: 239.4819 deg Mean anomaly: 119.6357 deg Mean motion: 14.52143418 rev/day Decay rate: .1.32 e-05 rev/day^2 Epoch rev: 11700 Checksum: 305 Satellite: CO-65 Catalog number: 32785 Epoch time: 09182.44362509 Element set: 74 Inclination: 097.9458 deg RA of node: 246.2940 deg Eccentricity: 0.0014764 Arg of perigee: 350.2822 deg Mean anomaly: 009.8113 deg Mean motion: 14.81495927 rev/day Decay rate: .2.07 e-05 rev/day^2 Epoch rev: 06355 Checksum: 322 Satellite: KKS-1 Catalog number: 33493 Epoch time: 09183.77706598 Element set: 530 Inclination: 098.0580 deg RA of node: 296.0552 deg Eccentricity: 0.0019858 Arg of perigee: 187.5348 deg Mean anomaly: 172.5572 deg Mean motion: 14.80692483 rev/day Decay rate: 2.45e-06 rev/day^2 Epoch rev: 2377 Checksum: 341 Satellite: SOHLA-1 Catalog number: 33496 Epoch time: 09183.77594779 Element set: 492 Inclination: 098.0394 deg RA of node: 292.8418 deg Eccentricity: 0.0005499 Arg of perigee: 227.3072 deg Mean anomaly: 132.7676 deg Mean motion: 14.69438482 rev/day Decay rate: 1.6e-07 rev/day^2 Epoch rev: 2356 Checksum: 349 /EX SB KEPS @ AMSAT $ORB09183.W Orbital Elements 09183.WEATHER HR AMSAT ORBITAL ELEMENTS FOR WEATHER SATELLITES FROM WA5QGD FORT WORTH,TX July 2, 2009 Send Subscribe/unsubscribe to KEPS at http://www.amsat.org/mailman/listinfo/keps BID: ORB09183.W TO ALL RADIO AMATEURS BT Satellite: NOAA-10 Catalog number: 16969 Epoch time: 09182.66741184 Element set: 05 Inclination: 098.6907 deg RA of node: 209.2358 deg Eccentricity: 0.0012565 Arg of perigee: 150.9170 deg Mean anomaly: 209.2709 deg Mean motion: 14.27389576 rev/day Decay rate: .3.9 e-06 rev/day^2 Epoch rev: 18557 Checksum: 333 Satellite: NOAA-11 Catalog number: 19531 Epoch time: 09182.84560425 Element set: 6868 Inclination: 098.7849 deg RA of node: 272.5732 deg Eccentricity: 0.0012303 Arg of perigee: 069.2975 deg Mean anomaly: 290.9497 deg Mean motion: 14.14897867 rev/day Decay rate: -1.17e-06 rev/day^2 Epoch rev: 07159 Checksum: 360 Satellite: NOAA-12 Catalog number: 21263 Epoch time: 09182.98688847 Element set: 944 Inclination: 098.7715 deg RA of node: 191.0524 deg Eccentricity: 0.0013479 Arg of perigee: 101.1502 deg Mean anomaly: 259.1194 deg Mean motion: 14.25583610 rev/day Decay rate: -1.0e-08 rev/day^2 Epoch rev: 94250 Checksum: 305 Satellite: MET-3/5 Catalog number: 21655 Epoch time: 09182.96324426 Element set: 35 Inclination: 082.5526 deg RA of node: 196.0556 deg Eccentricity: 0.0014111 Arg of perigee: 138.5997 deg Mean anomaly: 221.6197 deg Mean motion: 13.17019755 rev/day Decay rate: .5.1 e-06 rev/day^2 Epoch rev: 85957 Checksum: 318 Satellite: MET-2/21 Catalog number: 22782 Epoch time: 09182.49733649 Element set: 5012 Inclination: 082.5470 deg RA of node: 170.6568 deg Eccentricity: 0.0021126 Arg of perigee: 309.5772 deg Mean anomaly: 050.3515 deg Mean motion: 13.83635510 rev/day Decay rate: -4.2e-07 rev/day^2 Epoch rev: 79958 Checksum: 313 Satellite: OKEAN-4 Catalog number: 23317 Epoch time: 09183.75637658 Element set: 951 Inclination: 082.5414 deg RA of node: 319.9560 deg Eccentricity: 0.0021102 Arg of perigee: 317.3028 deg Mean anomaly: 042.6534 deg Mean motion: 14.82706535 rev/day Decay rate: 2.78e-06 rev/day^2 Epoch rev: 79467 Checksum: 315 Satellite: NOAA-14 Catalog number: 23455 Epoch time: 09182.82062498 Element set: 45 Inclination: 098.9081 deg RA of node: 260.4500 deg Eccentricity: 0.0010107 Arg of perigee: 145.1936 deg Mean anomaly: 214.9880 deg Mean motion: 14.13765274 rev/day Decay rate: .4.1 e-06 rev/day^2 Epoch rev: 74799 Checksum: 305 Satellite: NOAA-15 Catalog number: 25338 Epoch time: 09182.87080379 Element set: 94 Inclination: 098.5842 deg RA of node: 171.7550 deg Eccentricity: 0.0011020 Arg of perigee: 021.3654 deg Mean anomaly: 338.8008 deg Mean motion: 14.24769817 rev/day Decay rate: .9.7 e-06 rev/day^2 Epoch rev: 57886 Checksum: 328 Satellite: RESURS Catalog number: 25394 Epoch time: 09182.98413336 Element set: 642 Inclination: 098.3363 deg RA of node: 214.5772 deg Eccentricity: 0.0001735 Arg of perigee: 135.9333 deg Mean anomaly: 224.1992 deg Mean motion: 14.24184973 rev/day Decay rate: -1.5e-07 rev/day^2 Epoch rev: 57050 Checksum: 301 Satellite: FENGYUN1 Catalog number: 25730 Epoch time: 09182.92212700 Element set: 8168 Inclination: 098.7547 deg RA of node: 152.6464 deg Eccentricity: 0.0020095 Arg of perigee: 171.2505 deg Mean anomaly: 188.9019 deg Mean motion: 14.07904849 rev/day Decay rate: -3.88e-06 rev/day^2 Epoch rev: 52239 Checksum: 321 Satellite: OKEAN-0 Catalog number: 25860 Epoch time: 09182.49911617 Element set: 07 Inclination: 097.7865 deg RA of node: 163.1105 deg Eccentricity: 0.0001699 Arg of perigee: 096.2353 deg Mean anomaly: 263.9046 deg Mean motion: 14.73578381 rev/day Decay rate: .4. e-07 rev/day^2 Epoch rev: 53525 Checksum: 310 Satellite: NOAA-16 Catalog number: 26536 Epoch time: 09182.81340068 Element set: 4668 Inclination: 099.1760 deg RA of node: 186.8334 deg Eccentricity: 0.0009647 Arg of perigee: 236.7347 deg Mean anomaly: 123.2884 deg Mean motion: 14.12522834 rev/day Decay rate: -2.04e-06 rev/day^2 Epoch rev: 45236 Checksum: 323 Satellite: NOAA-17 Catalog number: 27453 Epoch time: 09182.82568294 Element set: 09 Inclination: 098.4828 deg RA of node: 241.3916 deg Eccentricity: 0.0012885 Arg of perigee: 082.8032 deg Mean anomaly: 277.4580 deg Mean motion: 14.24074129 rev/day Decay rate: .1.43 e-05 rev/day^2 Epoch rev: 36483 Checksum: 322 Satellite: NOAA-18 Catalog number: 28654 Epoch time: 09182.79382125 Element set: 9593 Inclination: 098.9063 deg RA of node: 125.9201 deg Eccentricity: 0.0013737 Arg of perigee: 325.8357 deg Mean anomaly: 034.1935 deg Mean motion: 14.11267051 rev/day Decay rate: -9.7e-07 rev/day^2 Epoch rev: 21201 Checksum: 313 Satellite: NOAA-19 Catalog number: 33591 Epoch time: 09182.84790527 Element set: 27 Inclination: 098.7451 deg RA of node: 128.2272 deg Eccentricity: 0.0013789 Arg of perigee: 197.6784 deg Mean anomaly: 162.3931 deg Mean motion: 14.10966984 rev/day Decay rate: .1.5 e-06 rev/day^2 Epoch rev: 02050 Checksum: 326 /EX SB KEPS @ AMSAT $ORB09183.M Orbital Elements 09183.MISC HR AMSAT ORBITAL ELEMENTS FOR MANNED AND MISCELLANEOUS SATELLITES FROM WA5QGD FORT WORTH,TX July 2, 2009 Send Subscribe/unsubscribe to KEPS at http://www.amsat.org/mailman/listinfo/keps BID: ORB09183.M TO ALL RADIO AMATEURS BT Satellite: HUBBLE Catalog number: 20580 Epoch time: 09182.21105557 Element set: 45 Inclination: 028.4715 deg RA of node: 010.7573 deg Eccentricity: 0.0003745 Arg of perigee: 065.8123 deg Mean anomaly: 294.2958 deg Mean motion: 15.00816593 rev/day Decay rate: .1.468 e-04 rev/day^2 Epoch rev: 85196 Checksum: 296 Satellite: ISS Catalog number: 25544 Epoch time: 09182.83210648 Element set: 1398 Inclination: 051.6394 deg RA of node: 231.7114 deg Eccentricity: 0.0007698 Arg of perigee: 173.9945 deg Mean anomaly: 162.7813 deg Mean motion: 15.74119689 rev/day Decay rate: -1.2261e-04 rev/day^2 Epoch rev: 60825 Checksum: 328 Satellite: CO-58 Catalog number: 28895 Epoch time: 09181.70427705 Element set: 386 Inclination: 098.0569 deg RA of node: 071.9423 deg Eccentricity: 0.0017055 Arg of perigee: 308.6022 deg Mean anomaly: 051.3672 deg Mean motion: 14.59777704 rev/day Decay rate: -4.6e-07 rev/day^2 Epoch rev: 19570 Checksum: 334 Satellite: FALCON Catalog number: 30776 Epoch time: 09183.83951176 Element set: 604 Inclination: 035.4346 deg RA of node: 004.4431 deg Eccentricity: 0.0001496 Arg of perigee: 006.0267 deg Mean anomaly: 354.0467 deg Mean motion: 15.03263538 rev/day Decay rate: 2.12e-06 rev/day^2 Epoch rev: 12745 Checksum: 274 Satellite: MAST Catalog number: 31126 Epoch time: 09182.69739649 Element set: 629 Inclination: 097.9871 deg RA of node: 236.8385 deg Eccentricity: 0.0093719 Arg of perigee: 234.5531 deg Mean anomaly: 124.6911 deg Mean motion: 14.53503467 rev/day Decay rate: -4.1e-07 rev/day^2 Epoch rev: 11714 Checksum: 323 Satellite: CAPE1 Catalog number: 31130 Epoch time: 09183.85308816 Element set: 638 Inclination: 097.9895 deg RA of node: 236.0895 deg Eccentricity: 0.0101727 Arg of perigee: 236.2457 deg Mean anomaly: 122.9001 deg Mean motion: 14.52068853 rev/day Decay rate: 1.02e-06 rev/day^2 Epoch rev: 11696 Checksum: 305 Satellite: COMPASS Catalog number: 32787 Epoch time: 09183.83750027 Element set: 398 Inclination: 097.9421 deg RA of node: 247.5295 deg Eccentricity: 0.0015464 Arg of perigee: 346.1395 deg Mean anomaly: 013.9386 deg Mean motion: 14.81621145 rev/day Decay rate: 1.43e-06 rev/day^2 Epoch rev: 6376 Checksum: 319 Satellite: AAUSAT2 Catalog number: 32788 Epoch time: 09182.72361495 Element set: 015 Inclination: 097.9399 deg RA of node: 246.4851 deg Eccentricity: 0.0015352 Arg of perigee: 351.3245 deg Mean anomaly: 008.7693 deg Mean motion: 14.81742629 rev/day Decay rate: -3.5e-07 rev/day^2 Epoch rev: 06360 Checksum: 319 Satellite: DO-64 Catalog number: 32789 Epoch time: 09183.75833362 Element set: 409 Inclination: 097.9469 deg RA of node: 247.6843 deg Eccentricity: 0.0015595 Arg of perigee: 345.9034 deg Mean anomaly: 014.1740 deg Mean motion: 14.81735569 rev/day Decay rate: 5.34e-06 rev/day^2 Epoch rev: 6375 Checksum: 350 Satellite: CO-66 Catalog number: 32791 Epoch time: 09183.20671491 Element set: 391 Inclination: 097.9443 deg RA of node: 246.9380 deg Eccentricity: 0.0016209 Arg of perigee: 346.5680 deg Mean anomaly: 013.5093 deg Mean motion: 14.81449014 rev/day Decay rate: 2.85e-06 rev/day^2 Epoch rev: 6363 Checksum: 316 Satellite: RS-30 Catalog number: 32953 Epoch time: 09183.72430702 Element set: 3447 Inclination: 082.5008 deg RA of node: 246.9504 deg Eccentricity: 0.0020136 Arg of perigee: 141.8948 deg Mean anomaly: 218.3568 deg Mean motion: 12.43002084 rev/day Decay rate: 1.0e-07 rev/day^2 Epoch rev: 5032 Checksum: 268 Satellite: TACSAT-3 Catalog number: 35001 Epoch time: 09182.94252033 Element set: 39 Inclination: 040.4542 deg RA of node: 152.4144 deg Eccentricity: 0.0025955 Arg of perigee: 273.0360 deg Mean anomaly: 086.7486 deg Mean motion: 15.38875619 rev/day Decay rate: .1.440 e-04 rev/day^2 Epoch rev: 00662 Checksum: 282 Satellite: PHARMSAT Catalog number: 35002 Epoch time: 09182.98577738 Element set: 67 Inclination: 040.4672 deg RA of node: 151.8923 deg Eccentricity: 0.0028645 Arg of perigee: 277.3848 deg Mean anomaly: 082.3717 deg Mean motion: 15.39646906 rev/day Decay rate: .1.470 e-04 rev/day^2 Epoch rev: 00662 Checksum: 323 Satellite: HAWKSAT1 Catalog number: 35003 Epoch time: 09183.82151972 Element set: 41 Inclination: 040.4694 deg RA of node: 146.7958 deg Eccentricity: 0.0029696 Arg of perigee: 284.9339 deg Mean anomaly: 074.8193 deg Mean motion: 15.39899600 rev/day Decay rate: 1.113e-05 rev/day^2 Epoch rev: 676 Checksum: 325 Satellite: CP6 Catalog number: 35004 Epoch time: 09182.97403704 Element set: 38 Inclination: 040.4585 deg RA of node: 151.7652 deg Eccentricity: 0.0029251 Arg of perigee: 280.8623 deg Mean anomaly: 078.9027 deg Mean motion: 15.40127158 rev/day Decay rate: .3.168 e-04 rev/day^2 Epoch rev: 00662 Checksum: 290 Satellite: AEROCUB3 Catalog number: 35005 Epoch time: 09183.88716973 Element set: 35 Inclination: 040.4736 deg RA of node: 146.4326 deg Eccentricity: 0.0029254 Arg of perigee: 283.9219 deg Mean anomaly: 075.8343 deg Mean motion: 15.39957063 rev/day Decay rate: 3.398e-05 rev/day^2 Epoch rev: 676 Checksum: 328 /EX